RH
51 57 62 57 56 50 41 36 25 25 34 27 13 5 4 4 3 3 2 2 4 6 6 5 3 2 2 2 2 2 2 2 2 2 2 2 2 3 2 3 3 3 4 3 4 4 4 4 5 5 4 6 7 7 8 13 17 16 19 23 19 15 11 10 11 11 11 12 13 14 15 14 14 13 14 14 13 14 15 16 17 17 18 16 15 16 17 18
45 50 58 52 48 48 43 32 19 19 22 15 8 4 4 4 3 3 3 4 6 6 5 3 3 2 2 2 2 2 2 2 2 2 2 2 2 3 3 3 4 4 4 4 4 4 5 5 5 5 6 7 8 8 8 11 14 13 14 17 13 10 12 13 12 12 14 14 15 15 14 14 14 13 13 13 13 14 16 19 19 17 17 16 16 18 18 18
43 46 54 50 44 46 41 27 13 9 9 6 5 4 5 4 3 4 5 7 7 6 4 2 3 3 3 3 2 2 2 2 2 3 2 3 3 3 4 4 4 4 4 4 5 5 5 6 5 6 7 9 9 8 9 10 12 11 11 11 10 10 12 14 14 14 14 14 14 13 13 14 13 12 13 13 13 15 17 18 18 17 17 17 17 18 19 19
49 42 50 52 45 42 34 21 8 4 5 5 6 5 6 5 5 6 6 7 7 7 4 2 3 2 2 2 2 3 2 2 2 3 2 3 4 4 4 4 5 5 5 5 6 6 6 6 6 7 8 9 9 9 9 12 13 12 11 11 11 11 13 14 14 14 13 13 13 11 12 13 11 12 14 14 15 17 18 17 17 17 16 17 18 19 20 19
55 39 46 50 41 36 29 17 7 6 6 6 7 7 7 7 7 6 6 5 5 7 5 3 4 3 4 3 5 7 6 3 2 3 3 4 4 4 5 5 5 5 6 6 6 6 6 6 7 8 8 8 9 10 10 12 15 13 11 12 12 13 13 14 14 13 13 12 11 11 12 12 11 14 15 15 16 18 18 18 17 16 16 18 19 19 19 17
59 41 43 43 34 30 24 14 6 7 8 7 8 7 7 7 7 6 5 3 3 5 5 4 5 5 5 5 5 7 7 4 2 3 4 4 4 5 5 5 6 6 7 7 7 7 6 6 7 8 9 9 10 11 11 11 14 13 11 12 12 13 13 14 14 13 12 12 11 11 11 11 13 17 16 14 15 16 18 19 17 15 16 18 19 18 16 14
57 43 40 36 30 28 23 13 5 7 8 8 8 7 8 7 6 5 3 2 3 3 3 4 4 4 3 3 3 3 4 3 3 4 4 5 5 5 6 6 7 7 7 7 7 7 7 7 8 9 9 10 11 11 12 11 11 12 11 11 12 13 14 16 15 12 13 12 10 12 13 13 17 20 17 15 16 17 19 19 15 15 16 17 18 15 14 14
43 37 33 27 24 26 24 12 5 8 8 8 8 7 7 7 5 3 2 3 3 3 3 3 2 3 2 3 3 3 3 4 4 4 4 5 5 6 7 7 7 7 7 7 8 8 7 8 8 9 9 10 11 10 11 11 11 12 12 12 13 14 15 16 16 14 14 13 11 14 15 15 19 21 20 18 18 19 19 16 14 15 16 16 15 14 15 16
27 27 26 21 14 15 22 15 7 8 8 8 8 7 5 4 4 2 3 3 3 3 3 3 3 3 3 3 3 3 4 4 5 5 5 6 6 7 7 7 8 8 8 8 8 8 8 9 9 9 10 10 10 9 9 10 11 12 13 13 13 16 18 18 17 17 17 15 13 13 13 16 19 22 21 18 17 19 17 15 14 15 15 14 13 15 17 20
23 21 17 16 11 8 15 15 9 8 8 8 8 6 4 3 3 2 3 3 3 3 3 3 3 3 3 4 4 4 4 5 5 6 6 7 7 8 8 8 8 8 8 8 8 8 8 9 9 10 10 10 10 10 9 9 11 11 12 12 15 21 22 19 18 18 18 15 15 14 13 17 20 22 22 17 16 18 16 15 14 13 13 13 14 17 19 22
22 18 9 12 17 11 11 11 8 8 7 7 7 4 3 3 3 3 3 3 3 3 3 3 3 3 3 3 4 4 5 5 6 6 7 7 8 8 8 8 8 9 9 8 8 8 8 9 9 10 10 10 10 11 10 9 10 11 12 13 15 24 24 20 19 19 19 17 15 13 15 21 20 21 20 16 17 17 16 16 13 12 13 14 17 18 21 24
11 9 4 14 26 17 11 11 8 9 7 6 5 3 2 3 3 3 3 3 3 3 3 3 3 4 3 4 4 5 5 6 7 7 8 8 8 8 8 8 8 9 9 9 8 7 8 8 8 9 9 10 10 11 11 10 11 11 13 14 15 22 23 20 21 21 19 18 15 13 18 23 21 21 20 16 17 17 16 15 13 14 15 17 19 20 23 26
4 5 5 17 27 17 11 11 8 8 7 4 3 3 3 3 3 3 3 3 3 3 3 3 4 4 4 4 5 5 6 7 7 8 8 8 9 8 8 9 8 9 9 9 8 8 8 9 8 8 8 9 10 12 12 10 11 12 14 14 14 22 24 20 22 22 20 17 15 14 19 20 18 21 20 16 17 16 15 13 14 16 18 19 21 23 25 27
7 7 8 11 15 13 10 9 7 5 5 4 3 3 3 3 4 3 3 3 3 4 4 4 5 4 5 5 6 6 7 8 8 8 9 9 9 9 9 9 8 8 9 9 8 8 9 9 9 8 7 9 10 12 11 11 11 12 15 14 13 18 21 19 19 18 18 17 15 15 18 16 15 19 17 16 17 15 14 14 16 18 20 22 23 25 27 28
14 8 8 10 9 9 9 6 5 4 4 4 3 3 4 4 4 4 4 4 4 5 5 5 5 5 5 6 6 7 8 8 8 8 9 9 9 9 9 9 9 8 9 9 9 9 9 9 9 8 8 9 10 11 12 12 11 12 14 13 12 13 15 20 20 15 15 17 17 16 17 15 13 16 16 16 16 14 15 17 19 21 22 24 25 27 29 30
24 12 7 10 8 7 6 4 4 3 4 4 4 4 4 4 4 4 4 4 5 5 5 6 6 6 7 7 7 8 8 8 8 9 9 9 9 9 9 9 9 9 9 9 9 9 8 8 8 9 9 10 9 11 13 12 12 12 13 13 13 13 13 18 20 18 16 15 16 16 16 14 13 16 16 16 16 16 18 19 21 23 24 26 27 29 31 32
31 16 8 8 6 5 5 4 4 4 4 4 5 4 4 5 4 4 4 5 6 5 6 7 6 8 7 7 8 8 8 8 9 9 9 9 9 9 9 9 9 9 9 9 9 8 8 8 8 9 9 10 10 11 13 12 12 13 13 15 16 15 15 15 17 19 18 14 14 15 16 15 14 16 17 16 17 18 20 21 22 24 26 28 29 31 33 34
31 15 8 8 5 4 5 5 5 5 5 4 5 5 5 5 4 5 5 5 6 6 7 8 9 10 8 8 8 8 8 8 9 9 9 9 9 9 9 9 9 9 9 8 9 8 8 9 9 9 9 9 10 11 13 14 14 14 14 15 16 15 16 17 17 18 16 14 14 16 17 16 15 16 18 19 20 21 22 23 24 26 28 30 31 33 35 35
26 13 8 9 6 4 4 5 5 4 5 5 5 6 5 6 6 6 6 6 6 6 7 8 9 10 8 8 9 8 8 8 9 9 9 9 9 9 9 9 8 8 9 8 9 9 9 10 9 9 9 10 11 12 14 15 16 16 15 16 16 16 16 18 18 16 15 14 14 18 19 17 16 17 20 22 22 23 24 25 26 28 30 32 33 34 36 37
17 10 7 10 6 5 5 4 5 5 6 6 6 7 6 6 7 7 7 7 6 7 8 8 8 9 9 9 9 9 9 9 9 9 9 9 9 9 9 9 8 8 9 9 10 9 9 10 9 10 12 13 13 14 15 17 17 17 18 18 18 18 16 17 17 15 17 17 15 19 20 18 18 20 22 24 24 24 25 26 27 30 31 33 34 36 37 39
9 8 6 9 5 4 5 4 6 6 7 7 7 8 7 7 7 8 9 8 7 7 8 9 9 9 9 9 9 9 9 9 9 9 9 9 9 10 9 9 8 8 9 10 10 10 10 10 10 12 14 13 14 15 16 17 18 18 19 21 23 22 16 15 17 17 20 21 18 20 21 20 22 23 24 24 25 26 26 27 29 31 33 34 35 37 39 41
5 8 5 7 4 4 5 5 7 8 8 8 8 8 8 8 8 9 10 9 8 8 8 9 9 9 9 9 9 9 10 9 9 9 9 9 9 10 9 9 9 9 10 10 11 11 10 11 13 14 14 14 15 16 17 18 19 19 20 22 23 23 19 17 17 18 21 21 19 22 24 25 25 24 24 26 27 27 27 28 30 32 34 35 37 39 41 43
4 7 5 5 4 4 6 7 8 8 9 9 8 9 8 8 8 9 9 9 9 9 9 9 9 9 9 9 9 9 9 9 9 9 9 9 9 9 9 9 9 10 10 11 11 11 11 12 15 15 14 15 15 16 18 18 19 20 21 22 21 21 23 23 18 17 21 22 23 26 29 28 26 24 25 27 27 26 27 29 31 33 35 37 38 40 43 44
4 6 5 5 4 4 6 7 9 8 8 8 9 9 9 8 9 10 9 9 10 9 10 9 9 10 9 9 10 9 10 10 10 10 9 10 10 10 10 10 10 10 12 13 12 11 12 14 15 15 16 15 15 16 17 17 19 20 21 22 22 19 22 24 21 20 20 23 27 32 34 28 23 25 26 27 27 26 28 30 32 34 36 38 39 41 44 45
5 6 5 5 5 5 5 6 8 8 6 7 8 9 9 10 10 10 10 10 10 10 10 10 9 9 9 10 9 10 10 10 10 10 10 10 10 10 10 10 11 11 12 15 14 12 12 14 15 16 17 16 17 17 16 17 18 20 21 22 22 20 19 21 22 23 23 26 29 35 45 38 25 26 28 26 27 26 29 31 33 37 38 39 41 42 45 46
4 5 5 5 5 4 5 6 7 7 6 7 7 8 9 10 10 11 11 11 11 10 9 11 12 9 9 10 9 10 11 10 10 10 10 11 10 11 11 10 11 10 11 16 17 14 13 15 16 17 18 18 18 18 17 18 18 20 22 22 23 22 21 20 22 25 26 29 29 34 48 45 29 27 28 26 27 28 31 33 35 38 39 40 42 44 46 48
5 5 5 6 7 6 8 8 8 7 7 8 7 8 8 8 10 11 11 15 17 13 9 11 12 9 10 10 9 12 13 11 11 11 10 11 10 11 11 10 11 12 11 15 17 14 14 16 17 18 19 19 19 19 19 19 19 20 21 22 23 21 21 21 22 27 30 31 30 31 39 41 33 28 27 27 28 30 32 35 37 38 40 42 43 46 47 50
5 6 7 9 10 9 10 10 9 8 8 8 8 8 7 7 10 11 15 23 20 11 9 11 10 10 10 10 10 11 11 11 11 11 11 11 11 11 11 11 12 13 12 14 15 14 16 17 18 20 20 20 20 20 20 21 21 21 21 23 23 23 23 23 23 27 32 33 32 33 36 41 38 28 27 30 29 32 34 36 39 39 42 45 46 49 51 54
7 8 9 11 11 11 11 10 9 8 8 9 8 8 8 8 10 13 19 25 18 8 10 12 10 12 10 9 11 11 11 11 11 12 11 12 12 11 12 11 13 15 14 13 14 15 18 19 19 20 20 21 22 22 22 22 23 23 23 23 23 25 24 23 27 27 31 38 36 33 35 42 43 30 27 33 31 33 36 37 40 42 44 48 49 53 55 57
7 8 9 10 11 11 10 9 8 7 8 9 8 8 9 10 13 20 22 19 13 9 10 11 10 12 10 10 12 11 11 12 11 12 12 12 12 12 13 13 14 17 15 13 14 15 18 20 21 21 21 23 24 24 23 23 25 25 25 25 24 27 26 26 30 26 36 48 40 31 32 40 48 37 28 33 33 34 37 38 42 44 47 51 53 56 57 58
7 8 9 11 12 11 10 9 7 6 6 7 8 9 10 11 15 24 23 15 10 10 10 11 11 11 10 11 11 11 12 12 12 14 13 13 13 12 13 13 14 18 17 14 14 15 17 20 22 22 22 23 24 25 24 24 27 26 28 27 25 28 28 30 34 30 44 55 38 29 31 36 46 39 30 34 35 35 39 41 44 46 50 56 57 58 59 59
7 9 11 12 13 11 9 7 6 5 5 6 8 9 11 14 15 16 16 12 11 11 11 11 12 11 11 11 11 11 12 13 13 14 14 14 13 12 13 12 13 17 17 15 15 16 17 20 23 23 22 24 25 26 25 26 28 28 30 28 29 38 40 44 50 44 46 46 32 31 36 38 42 36 32 36 36 37 41 43 46 49 55 59 60 61 61 60
8 11 13 13 12 10 7 5 4 4 5 6 8 10 11 17 18 14 12 11 11 11 10 10 11 12 11 11 12 12 12 13 14 14 14 13 13 13 13 13 13 15 16 15 16 16 17 21 23 22 23 24 27 27 27 28 29 30 32 30 35 47 52 58 65 58 50 43 33 35 43 44 39 33 35 37 37 41 44 45 49 53 58 61 62 63 63 62
11 12 13 12 10 8 5 4 4 4 5 5 7 11 12 13 15 12 11 9 9 10 10 11 12 12 11 11 12 12 12 13 13 14 14 13 14 14 13 14 15 15 16 17 18 17 19 23 23 23 24 25 28 29 28 30 32 32 34 35 35 39 45 53 59 55 51 46 38 38 44 44 38 35 37 37 40 45 46 47 52 56 60 62 63 64 65 64
13 13 12 11 8 6 4 4 4 4 5 5 6 9 11 12 12 11 9 8 8 10 11 12 12 12 12 12 12 13 13 13 13 14 14 14 15 15 15 15 15 16 17 17 18 19 20 22 23 23 25 26 28 30 30 31 33 34 36 37 37 37 40 45 47 42 43 53 53 44 41 40 37 36 36 39 43 46 48 51 55 58 61 62 63 66 67 66
12 12 11 8 6 5 4 4 4 4 5 6 6 6 8 11 12 10 9 9 9 10 11 12 12 12 12 11 12 13 13 14 14 14 15 15 16 16 16 16 16 16 17 17 19 21 20 21 22 24 25 27 29 30 32 32 33 35 37 39 40 39 40 43 46 44 48 62 60 43 37 39 38 37 37 40 45 47 50 53 55 59 61 62 65 67 69 68
11 11 8 6 5 4 4 4 5 5 5 6 6 7 9 10 10 9 9 10 10 11 11 11 13 14 13 12 12 13 14 14 14 15 15 15 16 17 17 17 17 17 17 18 20 21 22 22 23 25 25 27 29 30 31 32 33 35 37 40 41 40 41 43 49 57 64 72 62 43 41 44 42 42 39 40 46 49 52 54 56 60 61 62 67 70 72 71
10 8 6 5 4 4 4 5 6 6 6 7 7 8 9 9 8 9 10 10 11 12 12 12 13 13 13 12 12 13 14 15 15 16 16 16 17 19 18 18 18 18 18 19 20 21 23 23 23 25 25 27 30 32 33 33 34 35 36 39 40 42 44 43 48 60 69 78 71 52 46 44 41 41 39 42 48 50 53 55 57 60 61 64 69 72 74 73
7 5 4 4 5 5 5 6 8 8 7 7 7 8 9 9 9 9 10 11 11 12 13 13 13 13 13 13 12 13 14 15 16 16 16 18 18 19 20 19 18 19 19 20 21 22 24 26 25 25 26 28 30 32 35 34 36 37 37 39 39 42 46 44 46 52 59 74 79 68 58 46 36 37 39 43 49 51 54 57 58 60 62 66 70 72 76 76
5 5 5 5 6 6 6 7 8 9 8 8 8 9 9 9 10 10 10 11 11 12 13 13 14 13 13 13 13 14 14 15 16 17 17 18 18 19 21 20 19 19 20 21 22 22 24 27 27 26 27 30 31 33 36 36 38 39 38 40 41 43 47 47 47 46 50 67 79 80 73 47 29 36 42 43 49 51 54 57 59 62 64 66 68 72 76 78
6 7 7 7 8 7 7 8 8 8 9 9 9 9 9 10 10 10 11 11 11 12 13 14 14 14 14 14 14 15 15 16 16 17 18 18 19 20 21 21 20 20 21 21 22 24 26 27 27 26 27 28 29 33 36 37 38 38 39 41 40 43 47 50 55 51 48 59 65 73 76 47 26 37 42 42 49 51 55 59 61 63 64 65 67 70 75 79
8 8 8 8 9 8 8 8 9 9 9 9 10 9 9 10 10 10 11 11 12 12 13 14 15 15 15 15 15 15 16 16 16 17 18 18 20 20 20 21 21 21 22 22 23 25 25 27 29 28 27 28 30 34 36 37 38 38 39 40 40 45 46 50 60 55 50 57 55 64 75 48 25 37 42 42 49 52 57 62 62 64 64 65 66 68 74 79
9 9 8 8 8 8 8 8 8 8 9 9 9 9 10 10 10 11 11 11 12 13 14 15 15 16 16 16 16 16 17 17 18 18 18 19 20 20 21 21 21 22 22 22 24 25 26 29 31 29 27 26 28 33 35 36 38 39 39 40 41 45 46 48 54 52 53 57 53 67 80 49 25 37 41 41 49 54 59 63 62 64 63 64 66 67 72 77
9 8 7 7 7 7 7 7 7 7 8 9 9 9 10 10 10 11 11 12 12 13 14 15 16 17 17 17 17 17 17 18 19 19 19 19 20 21 21 22 22 23 23 23 24 25 27 30 32 33 35 35 34 37 36 36 40 40 40 42 42 44 48 50 52 56 58 53 49 68 77 48 30 39 40 42 52 56 60 63 62 62 62 63 66 67 70 76
8 8 8 7 6 6 6 6 6 6 6 7 8 9 10 10 11 11 11 12 12 13 14 15 16 17 17 18 18 17 18 18 19 19 19 20 21 22 22 22 23 23 23 24 24 25 27 28 29 33 41 45 44 42 39 37 40 41 40 42 43 45 49 51 54 60 60 52 50 58 57 42 33 36 39 46 55 59 61 62 61 61 61 63 65 67 70 74
8 7 7 7 6 6 6 5 6 5 6 6 6 7 8 9 10 10 11 12 11 12 13 14 15 17 18 18 18 18 19 18 20 20 20 21 22 22 23 23 23 24 24 24 24 26 27 26 27 30 33 36 36 34 35 37 39 40 40 42 44 45 48 52 57 59 53 52 54 47 42 43 36 30 40 52 57 60 62 60 60 60 60 63 65 66 69 71
7 6 6 6 6 6 5 5 6 5 6 6 6 7 7 7 9 10 10 11 11 12 13 13 15 16 17 19 19 19 19 19 20 20 20 21 22 22 23 23 24 24 24 25 25 27 28 26 27 28 28 30 32 31 33 36 38 39 40 42 44 46 49 52 52 48 45 53 55 40 39 48 39 31 44 56 58 61 61 59 61 60 60 63 64 65 68 71
5 5 5 5 4 5 5 5 5 5 5 5 5 6 6 7 8 9 10 10 11 12 12 12 14 15 17 19 19 20 20 19 20 20 21 22 22 23 23 23 24 24 24 26 26 27 29 27 27 28 27 27 30 31 33 36 37 38 39 40 42 46 48 46 43 42 46 53 50 40 44 49 39 36 48 56 60 62 60 59 60 60 61 63 62 65 68 69
3 3 3 3 3 4 4 4 4 4 5 5 5 5 6 6 7 8 9 9 10 11 12 12 13 15 17 18 20 20 20 20 21 21 21 22 22 23 23 23 24 25 25 27 27 28 30 29 29 30 28 26 28 32 33 34 36 35 34 36 38 41 42 40 40 42 47 49 44 43 50 45 34 39 52 58 61 63 61 60 60 60 61 60 59 63 66 67
3 3 2 2 3 3 3 3 3 3 4 4 4 5 5 6 6 7 7 8 9 10 11 12 13 14 16 17 19 20 21 21 21 21 22 22 22 23 24 24 24 25 26 27 28 30 31 32 31 31 31 27 27 30 32 34 36 33 30 31 35 39 39 39 41 42 46 47 43 47 52 41 31 44 58 60 61 63 61 57 55 55 56 56 55 60 64 66
2 2 2 2 2 2 3 3 2 3 3 3 4 4 5 5 6 6 6 7 8 9 10 12 13 14 15 16 18 20 21 21 21 21 22 22 23 23 24 25 25 26 27 28 29 29 31 33 32 33 36 30 26 31 33 33 34 32 29 31 34 38 39 38 39 41 44 46 45 50 49 36 35 51 61 59 59 61 56 48 47 50 51 50 52 56 61 63
2 2 2 2 2 2 3 2 2 2 2 3 4 3 4 4 4 5 6 6 7 8 9 11 12 14 14 15 17 19 20 21 21 22 22 22 22 23 24 25 25 26 27 27 29 30 32 33 32 36 40 32 27 33 33 33 38 36 30 30 33 35 37 39 39 39 42 45 47 46 39 33 43 59 62 57 55 53 46 40 43 47 44 43 48 52 56 58
Wind_Speed
3 3 4 5 5 6 5 6 8 7 6 3 3 8 9 9 7 4 2 3 4 6 8 8 9 10 12 13 11 11 12 13 15 14 11 10 10 11 11 11 11 10 10 10 9 6 7 10 9 10 13 15 15 12 11 10 9 8 10 7 3 1 4 6 8 10 11 10 9 9 11 12 11 12 13 13 15 16 16 16 18 20 21 24 25 26 27 28
4 2 2 5 7 7 6 4 5 5 3 2 6 9 9 8 4 2 3 4 6 8 9 9 11 11 12 11 9 9 10 12 15 11 8 9 10 12 12 11 10 10 10 9 9 7 8 10 10 11 14 16 14 11 10 10 7 8 10 5 1 3 5 6 8 9 9 9 9 9 11 12 13 13 14 14 14 15 14 13 17 23 27 29 29 27 28 30
6 4 2 4 6 7 5 2 6 5 3 5 7 8 7 4 2 4 5 6 7 8 9 10 11 11 10 11 10 9 8 11 13 9 8 10 11 12 12 11 10 10 9 9 9 9 10 10 10 13 16 15 12 11 11 9 8 8 8 6 4 6 7 6 8 9 10 11 11 12 12 12 13 13 13 15 16 17 16 16 20 26 31 32 29 28 30 32
8 7 4 3 3 5 3 4 8 7 6 6 6 5 3 2 4 6 7 7 7 8 9 10 10 10 10 11 10 9 9 10 10 8 9 11 12 11 11 10 9 9 9 9 9 9 8 8 11 14 15 13 11 12 12 9 8 8 8 7 5 5 6 9 12 12 11 12 13 14 12 12 15 14 12 15 17 17 18 21 25 29 31 30 28 29 32 33
9 9 7 3 2 4 3 5 9 8 7 5 4 3 3 4 6 6 7 7 8 9 9 8 9 8 8 7 7 5 6 8 8 8 11 11 11 11 10 10 9 9 9 9 8 7 7 8 12 14 13 13 12 11 10 9 8 8 10 9 6 5 6 13 16 13 12 12 14 15 12 13 16 14 14 16 17 18 19 23 28 30 29 27 27 31 32 34
10 11 8 3 2 4 1 6 9 8 7 3 4 4 4 6 6 6 7 8 9 9 8 8 7 6 6 6 6 5 5 7 8 9 10 10 10 10 10 9 9 9 8 7 8 7 8 10 13 13 12 13 12 9 9 10 9 8 10 9 7 5 5 13 16 14 15 14 15 15 14 16 15 13 15 17 19 21 21 24 28 30 27 26 28 32 35 39
10 10 8 3 3 2 2 7 6 6 3 3 4 5 6 7 7 7 8 9 9 8 8 7 7 6 7 7 7 8 8 8 8 9 9 10 9 9 9 9 9 8 7 8 10 10 11 11 12 12 11 12 11 11 10 10 10 9 10 10 9 6 6 14 17 17 19 18 18 16 15 15 12 11 15 19 21 22 22 25 29 30 27 27 30 35 39 42
10 9 7 5 5 3 3 5 4 2 2 4 5 5 6 7 7 9 10 9 8 7 7 6 6 6 6 6 5 8 9 9 9 9 9 9 9 9 9 8 8 8 8 11 12 11 11 10 10 10 11 11 11 12 11 10 11 10 10 11 11 8 8 14 18 20 21 20 19 16 14 13 10 10 15 19 21 21 23 27 31 30 27 28 32 37 41 42
10 8 7 6 4 3 2 4 3 3 3 5 5 5 6 7 9 10 9 8 7 7 6 5 5 4 5 6 5 7 10 9 9 9 8 9 9 9 9 8 9 10 10 12 12 11 10 9 9 9 10 10 11 13 13 11 10 9 10 12 13 11 10 13 17 20 21 21 18 16 16 14 11 12 16 20 21 21 24 29 31 30 28 30 33 37 40 42
10 9 8 5 2 1 2 2 2 4 5 5 5 5 6 8 9 9 8 7 6 5 5 4 3 3 4 5 6 8 10 9 9 9 9 9 9 9 9 9 11 11 11 12 12 11 11 9 9 9 9 10 10 13 13 11 9 9 11 14 14 11 9 13 17 18 20 21 16 15 16 14 12 13 17 21 21 23 26 29 31 31 31 32 34 37 40 42
7 7 6 5 2 1 1 1 3 5 5 5 5 6 7 9 9 8 7 6 5 4 4 3 3 3 3 4 7 9 9 9 9 9 9 10 9 9 10 10 11 11 11 12 12 11 11 10 9 8 9 8 8 11 11 11 10 10 12 14 14 10 10 15 16 16 18 21 17 16 16 11 11 15 18 21 22 24 27 29 31 32 32 33 34 37 41 43
4 5 5 6 5 1 1 3 4 4 4 5 6 7 8 9 8 7 5 5 4 3 2 2 3 2 3 5 8 8 8 9 9 9 9 9 9 9 11 11 11 11 10 11 11 11 11 11 10 9 9 7 7 8 9 10 10 10 10 13 13 8 9 14 13 13 17 20 19 18 15 11 12 15 18 21 23 25 27 28 30 31 32 33 34 37 41 43
4 5 7 7 6 2 2 3 3 3 4 5 7 8 8 7 6 5 4 4 3 2 2 2 2 2 5 7 7 8 9 9 9 9 8 9 9 10 11 11 11 10 10 10 11 12 12 11 10 9 8 7 7 7 7 9 11 10 9 11 12 6 8 12 10 12 16 18 19 16 12 13 14 15 18 22 24 26 27 27 29 30 32 33 34 37 40 43
6 6 7 7 6 4 4 4 3 4 5 7 7 7 7 6 6 5 4 3 3 2 2 3 4 4 6 8 7 8 8 8 9 9 9 10 10 11 11 10 10 10 9 9 10 12 11 10 8 8 8 8 7 6 7 9 10 9 7 9 12 9 9 12 9 12 16 17 20 15 11 15 16 15 19 22 23 25 26 28 29 31 33 33 34 37 40 44
7 6 6 6 6 6 5 5 6 6 7 7 7 6 6 6 5 5 4 3 3 3 4 4 6 6 7 8 8 9 9 9 9 9 10 11 10 11 10 10 10 9 9 8 10 11 10 8 7 6 8 7 7 7 8 9 10 10 8 8 11 11 11 12 11 13 15 16 19 16 12 16 16 15 19 22 23 24 25 28 29 31 34 34 35 37 41 45
7 6 5 6 5 5 6 7 7 8 8 7 6 6 6 5 4 3 2 3 3 4 5 5 6 6 6 8 10 9 9 9 9 10 11 11 11 11 10 10 9 9 9 8 9 9 8 7 7 7 7 6 8 8 5 8 12 12 12 10 11 13 14 13 13 14 14 14 16 15 14 17 16 16 19 21 22 24 25 28 30 32 34 34 36 38 41 45
7 5 5 6 5 6 7 7 7 7 7 6 6 6 5 4 4 3 3 4 4 5 6 6 6 7 7 9 10 9 9 9 9 10 10 11 12 11 10 9 9 9 8 7 7 7 7 8 8 7 6 5 7 8 5 9 14 14 14 14 14 16 16 15 15 15 15 14 13 14 15 16 16 17 20 21 22 24 26 28 30 33 34 35 37 39 43 46
6 4 5 6 6 7 8 7 7 7 6 6 6 6 5 5 5 5 5 5 5 5 5 4 4 6 8 9 9 8 8 9 10 9 9 11 12 11 10 8 9 9 7 6 7 7 8 8 5 2 3 5 7 11 11 11 14 15 16 17 18 18 17 18 17 14 15 14 11 12 16 16 16 18 20 22 23 25 27 28 31 33 34 36 38 41 44 47
6 3 5 6 6 7 7 7 7 7 7 7 6 6 7 8 7 7 7 6 4 3 3 4 4 6 8 9 9 9 9 10 9 9 10 11 11 11 10 8 8 8 8 8 6 7 9 6 3 3 7 10 11 14 15 13 13 15 16 17 20 21 21 18 14 12 15 16 11 9 15 17 18 19 20 23 24 25 27 28 30 32 34 36 38 41 45 49
5 3 4 5 5 6 6 7 8 7 7 6 6 6 6 8 8 8 8 6 5 5 5 6 6 7 8 9 9 9 9 9 8 9 10 10 10 11 9 7 9 9 9 8 5 8 10 6 5 8 10 11 12 14 15 15 14 14 16 18 20 23 24 16 10 11 15 19 15 11 15 17 18 19 20 23 24 25 26 28 30 31 33 36 39 42 46 51
5 4 5 5 6 7 6 7 7 7 8 7 6 6 6 6 8 9 7 5 5 7 6 6 7 6 7 8 9 9 8 8 7 9 10 9 10 10 8 9 10 10 8 7 7 9 7 6 9 12 10 10 11 14 16 16 15 15 18 20 19 23 24 15 8 11 14 18 16 13 16 18 19 19 19 21 23 24 26 28 29 31 33 36 40 43 48 53
4 5 6 7 7 7 6 7 9 9 9 9 8 8 8 7 8 10 8 6 6 6 5 5 6 6 6 7 7 8 7 6 6 8 8 8 9 9 9 10 10 10 8 7 9 8 6 9 12 10 10 10 11 14 15 16 15 16 19 21 21 24 23 14 8 11 13 16 17 13 16 20 20 19 17 19 22 23 26 28 29 30 33 37 41 45 50 54
4 6 7 8 8 7 7 8 10 10 9 8 8 8 8 8 9 9 7 6 7 6 4 4 4 4 5 6 5 6 6 5 5 7 7 7 8 8 9 9 10 10 8 7 8 8 8 12 11 9 10 10 11 12 13 15 16 16 19 21 23 25 22 14 11 12 11 16 17 13 17 21 17 15 17 19 21 23 26 28 29 31 35 38 43 47 51 55
6 7 7 7 7 6 7 8 8 7 6 5 4 5 6 7 8 7 5 5 5 4 4 4 4 2 2 3 4 5 4 4 5 5 6 6 7 8 8 9 9 9 8 5 5 7 10 12 11 11 11 11 11 11 12 15 16 17 20 23 24 23 19 16 16 15 14 14 12 14 19 17 11 15 20 21 22 24 25 27 29 32 35 39 44 49 53 56
7 7 7 6 6 6 6 6 6 4 1 2 2 2 3 4 3 3 3 3 3 3 2 2 3 2 1 3 2 2 3 3 3 4 5 6 6 7 7 8 8 8 8 5 4 6 9 11 12 12 12 12 12 12 13 15 16 17 19 22 23 21 17 16 16 17 17 13 10 15 14 9 12 19 22 23 23 23 24 27 30 32 35 41 46 50 55 57
7 7 6 6 6 6 5 4 4 3 3 2 0 1 1 2 2 2 1 2 1 2 3 1 0 1 1 2 3 2 1 0 2 3 4 5 5 6 7 8 8 8 9 8 6 6 6 8 11 13 13 13 14 13 13 15 17 16 18 22 22 18 16 15 14 15 16 14 14 12 7 10 21 23 22 26 24 22 25 27 30 33 38 44 48 52 56 56
7 7 7 6 5 4 3 2 3 3 4 3 2 1 2 2 3 3 2 2 2 2 3 1 1 0 1 1 2 3 3 1 1 2 3 4 5 5 6 7 7 8 9 9 7 5 4 5 9 14 14 14 15 15 15 16 16 16 18 21 22 17 13 12 12 14 14 16 16 8 6 14 22 24 26 27 23 23 28 30 32 37 42 46 49 53 55 54
8 7 7 5 4 3 1 2 3 4 4 4 3 2 2 2 3 4 3 1 2 3 2 2 1 1 1 1 1 2 2 2 1 0 2 4 4 4 5 7 6 7 9 9 8 6 5 5 7 12 15 15 17 16 15 16 16 18 19 21 23 17 11 9 10 13 14 16 14 6 5 9 16 24 26 23 23 26 30 33 36 40 43 46 50 53 52 53
8 8 6 4 2 1 2 3 4 4 4 4 4 3 2 2 3 4 3 1 2 3 1 1 1 2 2 2 1 1 1 1 1 1 2 3 4 4 5 6 5 5 7 8 8 7 6 6 6 11 15 17 19 17 15 16 18 20 20 22 22 16 11 6 7 14 13 11 8 4 4 6 13 23 22 19 25 29 32 36 38 39 42 46 50 50 51 53
8 7 5 3 1 2 3 4 4 5 5 5 4 3 2 3 4 3 2 1 3 4 4 2 2 2 3 3 2 3 2 1 1 1 2 2 3 4 4 6 5 3 5 8 9 9 9 7 5 10 14 16 19 18 16 18 19 21 23 24 22 15 9 3 4 12 10 6 4 5 6 9 10 17 20 22 27 30 34 37 37 38 42 46 48 48 51 54
8 6 5 3 2 3 4 5 5 5 5 4 5 4 3 4 6 3 1 2 3 5 5 3 3 3 3 4 3 3 2 2 2 2 3 4 4 4 4 6 6 3 5 10 11 10 11 8 6 9 13 16 19 19 17 18 20 21 23 26 22 13 7 1 2 6 3 5 5 5 13 15 10 15 22 26 29 31 34 35 34 37 43 47 48 49 53 55
8 6 5 3 3 4 5 6 5 5 5 4 4 5 4 5 6 6 4 2 3 5 5 3 3 4 4 4 4 4 3 3 3 2 3 4 3 3 3 6 7 3 4 10 11 10 12 10 6 9 14 16 19 20 16 16 18 20 22 26 19 8 6 3 1 2 3 8 11 12 19 17 15 20 26 26 29 31 33 33 34 40 47 48 49 51 54 56
7 6 4 4 5 6 6 5 5 5 4 4 4 5 5 4 4 6 6 4 2 3 5 5 5 5 5 5 5 5 5 5 4 3 3 4 3 4 5 6 7 6 6 9 9 10 13 10 6 10 13 16 21 20 15 15 17 19 22 24 14 4 4 4 4 3 3 13 24 22 17 13 16 26 29 25 27 31 32 33 37 45 49 49 50 53 55 56
6 5 4 5 6 6 6 5 5 5 5 5 5 5 6 5 4 4 5 6 5 3 4 5 5 5 5 5 6 6 6 5 5 4 4 4 4 5 6 7 7 7 8 9 8 10 11 8 8 10 12 16 21 20 16 15 15 16 19 19 12 5 2 2 4 3 5 18 30 21 7 10 20 28 28 24 28 33 33 35 41 48 50 50 52 54 55 57
5 5 6 6 6 6 6 6 6 6 5 6 6 6 7 6 4 4 3 4 5 5 4 5 5 6 7 7 7 6 6 5 5 6 5 5 5 5 6 7 7 8 8 9 8 9 8 8 10 10 11 16 20 19 18 14 11 14 16 15 14 8 2 6 9 11 11 13 18 13 11 21 28 26 24 23 29 34 34 39 45 48 49 51 53 55 55 55
5 6 6 6 6 6 7 7 6 6 6 6 7 8 8 6 5 5 3 3 4 5 5 6 7 7 7 8 8 7 7 6 7 7 7 7 6 6 6 8 7 7 9 9 8 8 9 11 10 8 11 16 19 19 18 14 12 13 13 14 16 10 5 8 10 11 8 4 8 13 20 32 32 23 23 27 32 35 36 41 47 48 49 51 53 54 54 54
6 7 7 6 6 6 6 6 6 6 6 6 7 8 7 7 6 5 4 4 4 5 6 7 8 7 7 7 7 8 8 7 7 7 7 7 6 6 8 8 8 8 9 9 8 9 11 11 8 7 11 17 18 18 16 14 14 13 11 14 16 9 6 8 7 5 2 2 7 12 21 33 28 19 26 31 32 37 39 42 47 47 48 51 52 52 52 52
7 7 7 6 6 7 6 6 6 6 6 6 6 6 6 7 7 6 5 5 5 5 6 7 7 7 8 8 9 9 8 8 9 8 8 7 6 7 9 9 9 8 9 10 9 11 11 9 7 8 13 17 18 17 15 14 14 14 13 15 15 8 5 7 6 4 3 2 5 11 19 27 24 20 27 31 33 40 42 43 46 47 48 51 51 51 51 52
6 7 7 6 6 6 6 5 5 5 5 5 5 5 6 6 6 5 5 5 5 6 7 7 7 8 9 10 10 10 9 9 10 9 9 7 7 9 10 9 8 9 10 10 10 12 12 8 7 10 15 17 17 16 15 15 15 15 15 15 14 9 6 8 6 5 4 2 4 9 14 22 24 23 27 33 38 43 43 45 47 47 50 51 50 51 51 52
6 6 6 5 5 6 5 5 5 4 4 5 5 5 6 6 5 5 5 5 6 6 7 7 8 9 10 11 10 10 11 11 11 11 10 9 9 10 9 8 10 11 11 11 11 12 12 9 9 12 16 18 17 15 16 17 16 16 17 15 14 12 10 10 10 10 7 4 1 2 9 24 28 23 28 38 42 43 45 47 48 49 51 51 50 51 52 52
5 5 4 4 4 4 4 4 5 5 5 5 5 6 7 7 6 5 5 6 7 7 8 9 10 10 11 11 10 11 12 12 12 11 11 10 10 9 8 10 12 11 11 12 12 11 12 12 14 14 16 18 18 16 15 16 16 17 20 19 18 17 13 8 6 9 9 8 5 2 8 27 31 26 35 44 42 44 46 46 48 50 51 51 51 52 52 52
3 3 3 3 2 2 3 3 4 4 5 5 6 6 6 6 6 5 6 6 7 8 9 10 11 11 11 11 11 12 11 12 13 11 11 11 11 11 11 12 13 12 13 13 12 12 14 14 14 16 17 17 16 14 12 14 16 17 19 22 22 21 16 8 5 8 9 12 13 6 8 24 34 34 41 44 42 45 46 45 48 50 51 52 52 52 52 52
2 2 2 2 2 2 2 3 3 4 5 5 5 5 5 6 6 6 6 7 8 9 9 10 11 11 11 11 11 12 12 12 12 11 11 12 12 12 13 13 13 13 14 13 13 14 15 13 14 19 21 17 14 12 11 12 15 17 20 23 24 24 22 16 14 16 14 16 15 6 8 24 39 41 43 43 42 43 43 45 49 50 52 53 52 52 52 52
2 2 2 2 3 3 2 3 4 4 4 4 4 4 4 5 6 6 7 7 8 9 9 11 11 11 12 12 12 12 12 11 10 12 12 12 13 13 13 14 14 13 14 14 14 14 12 12 15 17 17 14 11 10 10 14 18 21 23 23 23 24 22 18 18 16 12 16 14 8 10 31 45 43 42 41 40 41 42 45 49 50 52 53 52 53 52 52
2 3 3 3 3 3 3 4 4 4 4 5 5 5 5 6 6 6 7 8 9 10 10 11 11 12 12 12 13 13 12 12 12 13 13 12 13 14 14 14 14 15 16 15 15 15 14 15 15 12 8 6 8 11 14 20 23 25 26 24 24 25 22 19 16 14 13 16 15 13 21 42 48 42 40 40 38 41 44 46 49 51 52 53 53 52 52 52
3 3 3 4 5 5 5 5 5 5 5 6 6 6 6 6 7 7 8 9 9 10 11 11 12 12 12 13 13 13 14 14 13 14 14 14 15 15 14 15 16 17 17 17 17 16 16 18 17 15 15 15 18 20 22 25 27 27 26 24 25 25 24 22 18 18 18 18 21 26 35 45 48 42 40 41 41 44 47 48 50 52 52 53 53 52 52 52
3 4 4 5 5 5 5 6 6 6 6 6 6 6 7 7 8 8 8 9 9 10 11 12 12 12 12 13 14 14 14 14 14 15 16 16 15 15 16 17 17 17 17 18 17 16 18 20 18 18 21 23 24 25 25 25 27 27 26 26 26 25 25 26 24 24 23 17 24 37 38 41 46 44 39 42 46 47 49 50 50 52 52 52 52 52 52 51
4 4 5 5 5 5 6 7 7 7 7 7 8 7 8 8 8 8 9 9 10 11 11 12 12 12 13 13 14 14 15 15 15 16 15 15 16 16 17 18 18 18 18 17 17 17 19 21 21 20 21 23 25 26 24 23 25 28 29 30 29 25 25 28 27 28 27 25 30 40 40 42 45 41 39 44 46 47 50 50 50 52 51 51 52 52 51 51
4 4 5 5 5 6 7 7 8 8 8 9 9 8 9 9 9 9 10 10 11 11 12 12 12 13 13 14 14 15 16 16 16 16 17 17 18 18 19 19 18 18 18 18 18 19 19 20 22 23 23 25 25 23 22 24 28 32 33 30 25 22 22 26 29 28 29 33 37 39 41 44 40 36 40 47 45 46 50 49 50 51 50 50 51 51 52 51
4 4 5 5 6 7 7 8 8 8 8 9 10 9 9 9 9 10 11 11 12 12 13 13 13 13 14 15 15 15 15 16 17 18 19 19 19 19 20 20 19 19 20 20 21 20 20 21 23 25 27 27 24 22 23 25 30 36 32 21 15 17 19 24 28 28 28 34 37 36 41 44 38 36 42 47 46 48 49 48 49 49 48 49 51 52 53 52
5 5 6 6 7 7 8 8 8 9 9 9 10 10 10 10 11 12 12 12 12 12 13 13 13 14 15 15 15 16 16 17 17 18 19 19 20 21 21 21 21 22 22 22 23 23 22 23 25 25 27 28 26 25 25 28 35 34 23 14 14 18 20 23 25 26 28 32 34 35 40 41 40 42 46 47 47 48 48 48 48 46 47 49 51 52 53 52
6 6 6 7 8 8 8 9 9 10 10 9 10 11 11 12 12 13 13 13 13 12 13 13 14 14 15 15 15 16 16 17 18 18 19 20 21 21 22 22 22 23 24 23 23 24 23 24 25 22 23 28 28 26 29 33 28 20 16 21 25 22 20 21 24 28 30 30 33 36 38 38 41 45 48 48 48 48 49 48 46 46 47 49 51 52 52 52
Wind_Direction
152 105 56 51 65 60 40 22 27 18 18 53 335 333 342 337 327 330 14 78 102 108 108 112 116 118 113 105 107 117 127 123 105 90 83 79 73 64 59 59 60 60 59 59 56 54 75 87 91 91 87 83 81 82 86 102 110 93 91 107 139 284 339 3 1 351 349 342 335 331 331 334 332 332 335 332 327 329 329 327 329 331 331 328 327 329 329 328
205 167 77 64 77 71 59 25 16 25 41 21 313 328 341 332 327 26 86 107 117 116 114 121 123 119 113 113 123 131 132 115 95 84 84 79 66 57 50 51 54 56 55 54 60 61 63 71 75 78 79 76 76 79 85 91 79 69 82 95 93 27 26 19 360 355 351 342 342 345 344 335 330 333 336 333 329 331 332 329 326 327 331 335 338 340 338 336
216 188 143 87 86 88 93 5 351 3 345 317 322 340 344 340 43 94 105 116 126 123 122 130 128 123 119 121 125 121 108 93 89 87 82 69 58 53 49 49 52 53 56 55 55 56 60 69 74 73 73 73 72 72 75 81 73 61 73 86 65 37 41 36 14 9 360 350 348 349 351 334 327 336 336 334 335 338 338 334 332 333 336 339 340 341 340 339
208 189 172 134 97 97 114 339 347 348 337 331 345 4 6 56 98 106 111 122 131 131 133 135 125 118 116 117 114 102 85 77 82 81 70 61 55 53 51 51 53 55 57 58 55 55 66 77 75 71 75 78 70 65 68 77 79 63 68 77 63 54 58 41 24 19 7 352 347 350 352 329 328 341 340 338 339 338 339 340 340 338 337 337 338 341 341 341
193 184 180 175 92 116 154 340 355 352 348 359 23 48 83 100 109 115 118 125 132 137 142 137 126 121 120 121 113 97 83 73 70 68 63 58 55 53 53 52 54 59 56 60 61 65 85 82 73 70 73 76 67 62 64 66 65 56 65 69 59 72 62 36 25 21 10 352 345 351 348 329 336 349 343 340 338 336 343 345 342 338 336 336 337 340 341 342
174 180 185 184 84 129 169 351 2 356 356 35 74 93 105 109 120 124 127 127 127 132 137 138 133 132 134 127 110 100 97 81 67 63 61 57 56 54 55 55 55 62 63 72 75 74 78 70 68 70 74 78 72 70 67 58 56 54 57 55 57 69 41 27 21 14 8 354 349 352 347 339 344 351 340 335 338 342 346 343 339 338 338 335 335 339 340 341
157 171 183 169 104 130 316 350 359 352 8 84 88 100 110 118 133 133 132 126 121 124 128 134 130 129 124 108 100 98 92 81 70 63 61 60 59 59 60 61 63 67 72 78 73 63 61 62 65 69 77 80 73 73 72 59 60 65 53 43 49 48 18 16 12 11 8 357 355 355 349 345 346 346 334 332 340 346 342 337 339 340 337 332 334 339 339 338
144 159 172 158 113 126 289 339 14 33 75 98 89 101 115 129 139 134 131 125 120 121 125 128 121 118 103 82 84 91 82 74 71 65 64 65 64 67 67 67 72 72 73 75 70 63 65 72 73 69 74 77 70 65 63 58 60 60 49 39 33 23 15 11 7 12 10 1 359 352 343 341 341 340 329 332 339 340 336 336 341 339 333 332 336 337 337 336
124 138 154 152 107 118 242 327 38 103 100 97 100 105 120 133 135 132 129 125 123 121 120 117 110 98 81 74 71 76 76 73 72 68 68 71 71 73 74 78 80 75 73 73 69 66 68 74 77 71 74 79 70 58 53 56 57 46 37 32 24 14 11 7 5 10 8 4 360 342 337 336 336 338 325 329 335 334 334 336 339 338 334 335 334 333 334 335
118 117 124 125 71 89 211 295 60 99 95 101 111 112 119 129 132 130 128 125 128 130 125 118 106 80 74 85 78 72 75 76 75 74 73 75 77 78 84 84 78 74 71 67 66 66 65 66 69 68 73 81 75 63 55 50 46 33 25 23 23 16 4 3 4 7 2 1 356 336 337 335 331 330 318 326 334 333 334 335 338 339 337 334 330 329 332 334
141 137 123 109 115 248 223 144 94 91 95 108 116 116 120 127 130 126 125 127 130 131 124 111 90 75 83 89 78 73 77 80 79 79 77 78 82 83 85 80 74 74 70 66 65 63 61 57 57 64 70 76 79 70 56 44 36 27 20 19 22 15 359 359 357 0 357 354 352 341 337 326 320 320 315 328 335 332 333 334 338 340 336 331 328 329 332 333
156 162 136 117 125 197 249 113 100 100 107 116 121 122 123 127 128 126 127 131 131 132 118 88 67 77 110 91 78 76 79 81 80 79 77 78 83 81 77 76 72 71 68 67 62 53 53 47 42 53 63 68 71 64 50 40 31 22 20 17 18 11 352 351 346 351 353 350 350 344 329 307 308 313 318 333 335 332 333 335 338 337 334 330 328 330 332 332
110 131 132 139 137 129 147 126 113 122 127 130 128 125 127 129 129 131 134 133 131 119 97 74 66 98 107 90 83 82 79 79 80 81 81 79 80 74 70 70 67 66 66 66 60 51 48 40 32 37 51 58 56 53 42 35 26 18 17 12 17 23 348 348 349 350 350 347 346 340 312 301 315 319 325 334 333 332 334 335 335 333 332 330 329 330 331 331
77 105 124 148 152 139 141 130 120 130 137 137 132 129 130 129 129 132 131 129 117 90 85 90 85 90 99 99 98 92 86 86 87 85 82 75 70 68 65 64 62 60 61 62 61 55 46 39 32 28 41 46 40 36 27 26 22 18 18 5 9 17 357 353 358 355 350 345 339 333 305 308 326 328 328 332 331 332 332 331 331 331 331 330 329 330 330 331
59 85 112 132 140 136 131 122 117 122 132 136 135 134 130 127 126 124 123 118 101 93 101 98 89 91 106 113 106 99 97 95 93 87 79 72 68 65 59 56 55 54 57 59 59 56 48 45 40 31 44 43 25 21 22 20 12 13 22 11 3 2 359 355 353 354 352 342 332 325 312 314 327 331 327 330 330 330 328 328 329 329 330 330 329 329 329 330
59 68 105 122 121 123 122 118 116 119 128 133 133 132 127 124 120 113 119 121 108 100 98 90 92 105 119 115 102 100 101 97 92 83 74 68 63 59 52 49 48 48 52 53 55 56 53 55 57 50 55 52 28 23 23 13 11 14 14 13 10 1 357 355 350 345 341 337 329 320 313 314 324 330 327 329 329 326 325 325 327 328 330 329 328 327 327 327
70 62 97 109 105 112 118 117 116 118 126 130 129 127 122 118 115 106 104 114 110 99 96 91 95 105 111 108 101 102 102 96 86 76 68 60 54 50 48 45 43 43 45 53 57 51 44 44 50 53 56 59 38 30 21 9 11 10 6 7 10 4 359 351 344 336 329 332 331 315 306 309 319 325 325 326 325 323 323 324 326 328 330 329 327 326 325 325
82 66 98 103 102 109 113 112 113 116 120 121 118 114 113 113 115 107 95 98 109 105 99 103 110 106 104 105 105 108 103 90 80 73 65 56 50 45 44 39 40 41 34 45 46 35 37 34 32 39 25 25 22 21 23 19 10 4 4 2 358 359 359 347 337 330 323 327 333 310 301 306 314 321 321 320 320 320 321 323 326 328 329 329 327 325 324 324
95 83 105 107 108 110 115 116 117 118 115 113 110 103 103 105 105 104 93 84 97 117 112 118 125 116 113 112 110 111 99 85 79 73 62 55 50 44 39 29 32 36 27 35 36 30 37 23 333 324 357 10 13 16 23 24 13 4 3 0 355 353 353 346 333 325 321 325 338 312 297 304 314 318 316 315 317 318 319 322 325 327 328 328 326 324 324 324
110 110 117 116 115 114 121 125 121 116 111 108 109 103 98 102 99 94 85 71 87 116 116 113 114 116 121 119 113 108 93 85 80 68 59 52 48 44 38 25 26 31 28 31 31 30 27 1 4 25 20 20 18 16 20 19 13 6 359 359 356 348 347 346 325 325 325 324 336 321 297 304 311 313 312 312 315 316 320 324 325 326 327 326 326 324 325 326
120 118 125 122 118 119 125 127 118 110 106 99 102 102 103 108 99 88 80 79 106 119 120 114 110 116 125 121 112 102 89 83 73 65 57 47 46 44 34 25 24 26 27 33 36 28 10 0 33 37 25 23 20 17 17 13 9 5 1 357 349 339 342 345 323 331 328 316 325 319 298 301 305 307 309 311 314 317 323 326 326 326 326 326 325 324 327 330
130 126 132 130 129 130 128 125 119 111 103 97 99 100 102 110 104 93 88 93 103 112 129 125 110 108 117 122 115 101 91 82 68 64 57 47 47 41 30 28 27 25 23 34 38 25 6 26 40 31 16 18 19 18 16 11 6 5 4 356 343 335 337 343 334 334 327 311 317 313 294 297 302 305 311 313 316 320 325 327 326 325 324 324 324 326 329 332
142 138 141 139 142 141 133 130 125 113 101 95 96 93 93 100 102 96 92 92 93 98 110 117 114 108 104 108 110 103 95 79 65 60 52 50 47 38 29 27 27 26 22 32 34 19 23 37 37 23 15 13 10 11 8 6 6 5 4 355 344 337 332 332 327 327 328 316 312 303 292 295 301 310 320 323 324 326 327 327 325 324 323 322 324 329 331 332
146 142 145 147 150 149 141 141 139 124 102 84 86 91 92 100 100 95 102 103 91 87 91 91 98 115 130 115 96 94 95 72 62 58 51 51 47 40 31 27 32 31 26 37 27 13 30 35 26 19 13 8 5 357 349 357 3 1 360 353 342 336 329 321 317 321 332 325 312 309 303 296 304 323 330 331 331 329 327 325 324 323 322 322 326 330 332 333
147 147 150 154 157 157 151 154 164 165 125 30 67 101 111 123 113 96 116 118 81 63 70 84 80 65 154 185 154 91 88 65 56 57 50 47 45 41 32 28 34 33 29 40 17 6 26 27 19 15 8 5 0 347 343 349 353 355 356 350 340 332 326 320 316 318 327 332 329 327 320 302 311 324 331 333 332 329 325 323 322 320 320 324 329 331 332 334
154 156 158 158 157 156 158 171 189 212 267 307 302 159 162 188 190 148 159 204 164 48 28 14 204 30 41 202 210 212 213 27 49 54 46 39 36 38 32 23 26 29 29 31 18 3 12 15 16 12 4 2 355 346 347 346 344 351 351 347 343 333 323 321 317 315 319 328 331 322 299 288 305 320 331 330 330 329 327 325 322 321 325 329 332 332 332 333
158 160 158 153 149 150 170 213 227 243 270 279 263 236 230 228 214 209 244 258 243 301 346 341 253 189 82 165 206 220 227 227 34 50 49 33 30 36 29 17 18 26 26 22 14 1 348 357 12 10 1 355 352 347 347 344 340 343 342 343 344 335 324 319 317 317 313 320 326 312 259 275 295 316 328 327 329 331 330 329 327 327 330 332 332 331 332 332
160 162 157 150 147 148 213 266 259 263 271 264 256 259 255 229 218 222 222 257 267 271 292 298 255 177 176 206 196 201 204 207 252 39 46 30 32 33 18 9 9 20 23 16 9 1 348 347 3 6 359 352 352 348 343 341 339 338 338 342 344 340 327 318 323 328 314 311 323 314 278 274 282 308 323 325 328 333 334 333 330 330 332 332 331 331 332 332
164 166 162 159 161 184 292 288 278 274 269 261 255 257 264 232 215 213 198 225 248 219 217 288 201 199 222 222 210 225 209 184 235 30 27 17 30 27 10 5 359 6 11 6 8 7 356 352 354 357 356 353 353 347 338 340 341 338 337 340 345 342 329 324 335 332 312 297 303 268 296 318 295 306 322 328 327 332 335 333 332 332 331 330 330 332 333 333
172 175 178 181 201 302 304 294 292 283 268 264 252 244 255 220 196 184 184 254 237 208 212 230 233 235 235 233 248 252 244 284 306 20 13 352 19 19 5 1 351 342 352 356 5 9 2 352 341 349 353 353 352 347 340 340 341 341 340 342 347 345 334 322 329 330 314 289 281 230 297 335 311 308 323 329 329 332 333 332 331 330 329 329 332 334 335 335
182 186 191 203 275 310 307 300 297 286 272 261 244 238 238 210 200 187 179 255 243 215 210 224 244 246 240 243 251 260 267 297 318 351 347 342 2 2 354 2 358 327 336 354 358 2 4 352 331 342 347 348 350 347 341 339 342 343 343 346 350 349 343 314 301 342 321 290 304 278 306 313 284 299 322 328 329 331 330 329 328 327 328 331 335 336 336 336
193 193 204 241 295 305 305 301 293 285 272 255 241 236 226 215 221 227 231 253 236 208 207 230 258 251 250 251 254 269 275 286 309 312 315 334 352 335 329 3 7 340 329 354 355 351 356 352 334 334 338 343 347 346 342 338 342 344 344 353 360 355 351 349 270 330 253 277 303 300 304 301 279 302 324 328 328 329 328 327 325 326 331 335 337 338 337 336
199 202 225 266 295 301 297 291 281 276 268 255 251 236 223 217 233 243 243 236 226 232 236 246 262 255 254 263 263 271 272 275 290 283 291 320 329 326 334 354 5 4 347 350 350 346 352 354 343 334 336 341 343 343 343 339 341 347 353 3 13 21 5 342 298 320 261 293 311 309 302 293 296 318 329 329 329 330 328 327 327 330 335 338 338 338 337 336
201 218 253 279 294 295 288 281 272 270 266 260 256 236 226 228 250 275 267 234 234 288 267 244 258 257 255 266 266 271 279 277 281 282 292 310 315 329 347 350 352 359 354 347 345 345 347 345 339 335 335 340 340 340 342 341 341 349 360 8 10 22 52 296 291 309 281 302 314 316 302 293 309 326 333 332 334 335 331 329 330 334 337 338 338 337 336 335
213 248 275 289 293 289 281 275 270 267 266 261 253 238 233 240 264 298 304 239 239 276 272 252 267 268 265 270 265 273 285 281 285 287 285 294 303 315 338 343 341 349 351 345 342 341 338 332 329 328 332 337 339 339 339 341 343 347 356 3 357 351 277 264 281 285 283 298 312 311 305 310 316 328 336 335 337 338 334 331 333 336 338 337 337 336 334 335
241 269 284 290 288 283 275 271 270 266 263 262 255 247 246 255 277 301 306 257 253 270 266 263 274 276 275 274 266 274 284 282 288 291 285 288 293 302 324 333 333 340 343 343 345 341 335 332 325 321 333 339 340 339 335 335 341 343 349 358 354 343 307 299 290 284 282 272 298 300 307 318 325 337 343 339 339 339 335 333 334 336 337 335 334 334 334 335
263 280 288 288 282 277 271 270 270 265 263 264 259 257 260 268 280 289 283 273 274 277 271 270 274 276 279 279 274 281 286 287 292 294 294 294 290 300 318 323 324 329 334 340 342 336 333 331 324 320 333 339 339 335 330 327 333 336 339 350 353 346 328 325 310 304 319 245 280 289 302 315 322 332 341 340 339 340 336 333 334 335 334 333 332 333 334 335
276 285 286 284 279 272 270 270 271 269 265 266 267 269 273 277 281 279 275 277 280 284 282 277 275 276 281 284 286 289 288 289 295 298 303 303 295 303 312 315 318 320 327 335 332 331 334 331 325 324 330 338 337 330 327 324 324 327 327 334 345 344 315 321 319 312 328 294 287 295 305 315 317 320 334 339 338 338 336 333 334 332 331 331 331 333 334 335
282 285 280 280 274 269 268 267 276 282 272 269 275 279 282 284 281 274 275 280 281 288 287 279 280 283 286 290 291 290 290 291 295 298 304 301 297 305 307 306 313 316 320 327 325 328 333 325 315 322 327 333 334 327 321 318 318 319 317 318 330 334 301 299 293 266 275 268 297 313 312 319 327 328 332 339 338 337 336 333 333 331 329 330 332 333 335 336
283 280 276 275 269 265 264 261 275 290 283 279 278 278 286 291 284 277 279 281 283 288 286 283 288 288 290 295 292 289 292 294 294 294 295 296 301 307 303 300 313 316 314 319 321 323 327 318 305 316 326 327 327 324 317 315 313 310 311 309 314 323 312 301 287 265 254 225 258 352 297 310 331 341 335 338 339 337 335 333 331 329 329 331 332 333 336 336
282 275 268 268 266 260 258 263 277 287 287 288 284 280 286 289 285 278 276 282 283 285 287 289 293 292 292 295 293 291 293 292 294 293 287 291 303 307 300 302 310 313 311 313 316 319 323 317 305 310 325 324 321 323 315 311 311 308 310 307 306 312 310 301 285 264 244 231 249 180 271 307 334 346 336 338 339 335 334 331 329 328 328 331 332 334 336 336
279 274 264 266 267 259 262 273 284 290 290 292 289 288 289 289 287 281 279 284 285 287 291 291 294 296 294 294 293 293 292 291 293 292 284 288 298 301 299 302 307 309 311 310 310 314 319 315 305 309 322 324 324 326 318 311 310 306 307 306 305 307 301 288 265 270 262 254 263 231 247 307 335 341 334 338 338 334 333 328 326 327 328 331 333 334 336 336
272 270 266 275 275 266 278 290 294 297 296 295 293 293 292 291 292 288 286 287 287 290 294 294 296 296 294 296 295 292 293 293 293 290 287 289 294 298 300 303 304 306 311 310 306 312 318 314 308 311 318 322 322 324 321 315 310 305 304 305 303 301 299 291 276 277 278 266 263 209 221 304 332 337 334 338 336 331 329 325 325 328 329 332 334 334 335 335
265 261 270 285 282 280 292 298 300 303 302 298 299 300 297 298 298 294 291 290 290 293 295 296 298 297 296 297 294 293 293 292 290 292 294 294 294 298 301 302 303 303 307 308 304 306 311 308 309 316 323 328 328 327 324 317 312 307 305 305 303 300 296 287 276 272 271 269 263 191 235 302 327 334 332 336 333 327 327 325 327 330 331 334 334 333 334 335
272 272 279 284 284 294 304 305 306 313 317 314 313 314 309 307 305 300 297 294 291 293 294 295 296 297 298 297 294 294 292 288 288 289 293 296 297 299 301 301 302 301 303 305 302 301 298 298 305 309 305 303 308 312 315 315 311 307 307 307 306 303 294 285 275 259 261 272 257 232 275 308 326 335 333 334 332 328 329 329 329 332 333 334 334 333 334 334
284 279 281 285 288 291 296 301 305 312 320 320 320 324 322 318 314 305 300 296 293 292 292 293 295 296 297 296 295 295 292 290 288 287 291 296 297 297 299 301 302 301 301 301 302 299 292 294 303 300 291 292 300 310 317 316 309 305 308 307 304 302 296 284 265 256 272 278 268 278 297 309 323 337 337 335 334 332 332 332 332 333 335 335 334 333 333 333
290 284 287 292 292 290 292 296 298 301 309 312 315 320 320 319 317 308 301 298 296 295 293 293 295 295 296 297 296 295 295 293 290 290 293 294 295 296 298 301 302 300 300 301 301 297 292 295 299 298 300 304 308 316 319 313 306 305 308 306 304 303 294 279 269 276 287 276 279 303 310 304 315 334 337 333 335 333 333 334 334 334 336 335 334 333 332 333
300 297 302 302 297 296 298 299 299 299 301 304 308 312 313 313 313 309 303 300 297 296 295 295 296 295 296 297 297 296 297 297 295 295 296 294 296 297 298 301 301 300 302 301 299 297 294 296 298 298 301 305 309 317 317 309 306 306 307 309 308 304 292 284 286 293 288 271 284 309 311 300 313 333 334 331 334 332 332 335 335 335 336 335 334 333 332 333
319 319 322 324 317 313 309 306 305 303 302 304 305 307 308 306 305 304 300 299 299 297 296 296 295 294 295 296 297 297 298 300 299 298 297 297 298 299 299 301 302 302 303 300 299 298 294 296 299 298 299 305 311 315 313 310 310 310 312 314 310 301 293 291 297 299 288 282 295 310 307 306 322 336 330 330 333 331 333 335 335 336 336 333 333 333 334 335
334 334 335 334 329 326 321 315 313 310 308 308 307 305 304 302 299 298 296 298 299 299 298 298 295 293 294 296 299 299 298 299 299 298 299 299 299 300 300 301 302 303 302 301 299 297 293 293 297 298 299 305 312 314 313 314 312 310 313 315 304 296 295 295 300 301 292 293 306 310 302 308 329 337 329 330 333 332 333 335 335 337 335 333 334 335 335 336
328 328 330 330 328 326 324 322 318 316 315 312 308 305 303 301 298 296 296 296 297 298 298 298 297 295 295 297 299 299 299 299 299 300 300 300 300 300 299 299 301 300 300 300 297 295 293 291 295 299 298 301 310 314 314 315 310 306 309 322 318 308 302 298 300 302 300 303 310 305 298 310 330 333 328 330 332 332 333 334 336 337 335 334 336 336 337 337
320 319 321 322 322 321 321 321 317 315 317 314 309 306 304 302 299 297 297 297 296 297 297 299 300 297 297 299 299 300 301 300 301 301 301 300 300 300 298 298 298 297 297 296 294 294 293 291 294 298 295 298 307 312 314 317 312 305 317 329 325 314 302 296 302 310 313 310 307 303 305 318 329 329 328 330 331 331 332 335 337 337 336 336 337 337 338 337